DW6997 Weather Reports


Display with metric or nautical units.
time (UTC)temp
F
wind
direction
speed
MPH
gust
MPH
rain 1hr
in
rain 24hr
in
rain mn
in
humidity
%
barometer
mb
20210517132004 54 328 5.0 10.0 0.01 0.11 0.04 85 1005.4
20210517131004 53 332 5.0 10.0 0.01 0.11 0.04 84 1005.5
20210517130004 54 328 5.0 10.0 0.01 0.11 0.04 81 1005.7
20210517125004 56 324 6.0 14.0 0.01 0.11 0.04 79 1005.7
20210517124005 55 335 6.0 13.0 0.00 0.10 0.03 80 1005.5
20210517123005 54 333 4.0 10.0 0.01 0.10 0.03 83 1005.3
20210517122005 53 322 5.0 10.0 0.01 0.10 0.03 81 1005.2
20210517121004 54 350 7.0 15.0 0.01 0.10 0.03 81 1005.0
20210517120004 53 350 8.0 18.0 0.02 0.10 0.03 83 1004.9
20210517115005 54 334 8.0 16.0 0.02 0.10 0.03 84 1004.8
20210517114005 55 318 8.0 17.0 0.02 0.10 0.03 82 1004.6
20210517113006 55 317 8.0 17.0 0.01 0.09 0.02 83 1004.6
20210517112004 54 316 7.0 14.0 0.01 0.09 0.02 86 1004.4
20210517111004 53 314 7.0 13.0 0.01 0.09 0.02 83 1004.4
20210517110005 55 297 8.0 22.0 0.00 0.09 0.02 78 1004.4
20210517105007 56 287 7.0 14.0 0.00 0.09 0.02 78 1004.3
20210517104005 55 279 7.0 15.0 0.00 0.09 0.02 79 1004.1
20210517103004 54 266 7.0 14.0 0.00 0.09 0.02 80 1004.1
20210517102004 54 270 6.0 11.0 0.00 0.09 0.02 80 1003.9
20210517101004 54 269 5.0 11.0 0.00 0.09 0.02 80 1003.9
20210517100004 54 272 4.0 9.0 0.00 0.09 0.02 82 1003.8
20210517095005 54 278 4.0 10.0 0.00 0.09 0.02 83 1003.8
20210517094011 54 277 3.0 7.0 0.00 0.09 0.02 85 1003.8
20210517093005 53 277 4.0 5.0 0.00 0.09 0.02 87 1003.8
20210517092004 52 280 5.0 9.0 0.00 0.09 0.02 87 1003.7
20210517091005 51 280 5.0 9.0 0.00 0.09 0.02 89 1003.7
20210517090007 51 293 5.0 10.0 0.00 0.09 0.02 90 1003.7
20210517085005 51 300 6.0 9.0 0.00 0.09 0.02 91 1003.6
20210517084005 51 306 5.0 11.0 0.00 0.09 0.02 91 1003.5
20210517083005 51 300 5.0 10.0 0.00 0.09 0.02 92 1003.5
20210517082004 51 316 4.0 9.0 0.00 0.09 0.02 93 1003.3
20210517081005 50 322 4.0 8.0 0.00 0.09 0.02 93 1003.2
20210517080005 49 345 4.0 10.0 0.00 0.09 0.02 93 1003.1
20210517075005 49 8 4.0 8.0 0.00 0.09 0.02 93 1003.0
20210517074004 49 42 3.0 8.0 0.00 0.09 0.02 93 1002.9
20210517073006 49 51 3.0 5.0 0.00 0.09 0.02 93 1002.8
20210517072006 49 51 2.0 4.0 0.00 0.09 0.02 93 1002.6
20210517071004 49 51 1.0 4.0 0.00 0.09 0.02 94 1002.4
20210517070004 49 51 2.0 5.0 0.00 0.09 0.02 94 1002.4
20210517065006 49 51 2.0 5.0 0.00 0.09 0.02 94 1002.3
20210517064004 49 51 2.0 4.0 0.00 0.09 0.02 94 1002.3
20210517063005 49 51 1.0 4.0 0.00 0.09 0.02 94 1002.1
20210517062006 49 51 2.0 3.0 0.00 0.09 0.02 93 1002.0
20210517061006 49 51 2.0 4.0 0.00 0.09 0.02 93 1001.9
20210517060004 49 51 2.0 4.0 0.01 0.09 0.02 93 1001.8
20210517055005 49 51 1.0 3.0 0.01 0.09 0.02 93 1001.7
20210517054006 48 51 1.0 2.0 0.01 0.09 0.02 93 1001.6
20210517053005 48 51 1.0 3.0 0.01 0.09 0.02 93 1001.5
20210517052006 48 51 1.0 3.0 0.01 0.09 0.02 93 1001.3
20210517051004 48 51 1.0 3.0 0.01 0.09 0.02 93 1001.3
20210517050006 48 0 0.0 2.0 0.01 0.08 0.01 93 1001.1
20210517045004 48 0 0.0 0.0 0.01 0.08 0.01 93 1001.0
20210517044004 48 0 0.0 0.0 0.01 0.08 0.01 93 1000.8
20210517043005 47 0 0.0 2.0 0.01 0.08 0.01 93 1000.7
20210517042005 47 51 1.0 2.0 0.01 0.08 0.01 93 1000.6
20210517041006 47 51 0.0 3.0 0.01 0.08 0.01 93 1000.5
20210517040006 47 51 0.0 2.0 0.00 0.07 0.00 93 1000.4
20210517035006 47 51 2.0 3.0 0.00 0.07 0.00 93 1000.3
20210517034006 47 51 2.0 4.0 0.00 0.07 0.00 93 1000.2
20210517033004 47 51 1.0 4.0 0.00 0.07 0.00 93 1000.1
20210517032005 47 51 2.0 3.0 0.00 0.07 0.00 93 1000.0
20210517031005 47 51 2.0 3.0 0.00 0.07 0.00 93 999.8
20210517030004 47 51 1.0 4.0 0.00 0.07 0.00 93 999.8
20210517025005 47 51 0.0 3.0 0.00 0.07 0.00 93 999.6
20210517024005 47 0 0.0 2.0 0.00 0.07 0.00 93 999.5
20210517023004 47 0 0.0 1.0 0.00 0.07 0.00 93 999.4
20210517022005 47 0 0.0 0.0 0.00 0.07 0.00 93 999.2
20210517021007 47 0 0.0 0.0 0.00 0.07 0.00 93 999.0
20210517020007 47 51 1.0 2.0 0.00 0.07 0.00 93 998.9
20210517015007 47 51 2.0 3.0 0.00 0.07 0.00 93 998.8
20210517014005 47 51 2.0 4.0 0.00 0.07 0.00 93 998.7
20210517013005 47 51 1.0 3.0 0.00 0.07 0.00 93 998.6
20210517012005 47 51 1.0 3.0 0.00 0.07 0.00 93 998.5
20210517011005 47 51 2.0 3.0 0.00 0.07 0.00 93 998.4
20210517010006 47 51 2.0 3.0 0.00 0.07 0.00 93 998.3
20210517005005 47 51 2.0 4.0 0.00 0.07 0.00 93 998.2
20210517004005 47 51 2.0 4.0 0.00 0.07 0.00 93 998.2
20210517003005 47 51 2.0 4.0 0.00 0.07 0.00 93 998.1
20210517002006 47 51 3.0 5.0 0.00 0.07 0.00 93 998.1
20210517001005 47 51 2.0 4.0 0.00 0.07 0.00 93 998.1
20210517000005 47 51 2.0 4.0 0.00 0.07 0.00 93 997.9
20210516235006 47 51 2.0 3.0 0.00 0.07 0.00 93 997.8
20210516234005 47 51 2.0 4.0 0.00 0.07 0.00 93 997.7
20210516233006 47 51 2.0 3.0 0.00 0.07 0.00 92 997.6
20210516232007 48 51 2.0 5.0 0.00 0.07 0.00 92 997.6
20210516231005 48 51 2.0 5.0 0.00 0.07 0.00 92 997.4
20210516230006 48 51 2.0 4.0 0.00 0.07 0.00 92 997.3
20210516225005 48 51 1.0 3.0 0.00 0.07 0.07 92 997.1
20210516224005 49 51 2.0 5.0 0.00 0.08 0.07 92 997.0
20210516223005 49 51 3.0 5.0 0.00 0.08 0.07 92 997.0
20210516222005 49 51 2.0 5.0 0.00 0.08 0.07 92 996.8
20210516221006 49 51 1.0 3.0 0.00 0.08 0.07 92 996.8
20210516220005 49 51 1.0 3.0 0.00 0.08 0.07 92 996.6
20210516215007 49 51 2.0 4.0 0.00 0.08 0.07 92 996.5
20210516214006 49 51 1.0 4.0 0.00 0.08 0.07 92 996.5
20210516213006 49 51 2.0 4.0 0.00 0.08 0.07 91 996.5
20210516212005 49 51 2.0 5.0 0.00 0.09 0.07 91 996.5
20210516211005 50 51 2.0 4.0 0.00 0.09 0.07 91 996.4
20210516210006 50 51 3.0 5.0 0.00 0.09 0.07 91 996.4
20210516205005 50 53 3.0 7.0 0.00 0.09 0.07 91 996.3
20210516204005 50 55 3.0 6.0 0.00 0.09 0.07 91 996.1
20210516203006 50 55 2.0 5.0 0.00 0.09 0.07 91 996.0
20210516202005 50 55 2.0 3.0 0.00 0.12 0.07 90 995.9
20210516201005 50 55 3.0 8.0 0.00 0.12 0.07 90 995.6
20210516200006 50 56 5.0 10.0 0.00 0.12 0.07 90 995.5
20210516195005 50 64 5.0 10.0 0.00 0.12 0.07 90 995.5
20210516194005 51 221 3.0 6.0 0.00 0.12 0.07 90 995.4
20210516193005 52 222 2.0 5.0 0.00 0.12 0.07 91 995.1
20210516192005 52 223 2.0 4.0 0.00 0.12 0.07 91 995.0
20210516191007 52 224 3.0 6.0 0.01 0.12 0.07 91 994.9
20210516190006 53 224 3.0 6.0 0.01 0.12 0.07 91 994.9
20210516185008 53 223 2.0 5.0 0.01 0.12 0.07 91 994.8
20210516184005 53 223 3.0 5.0 0.02 0.12 0.07 91 994.7
20210516183005 52 221 2.0 5.0 0.02 0.12 0.07 91 994.5
20210516182005 52 220 2.0 5.0 0.02 0.12 0.07 91 994.4
20210516181005 51 219 2.0 5.0 0.01 0.11 0.06 91 994.4
20210516180006 51 219 3.0 5.0 0.01 0.11 0.06 91 994.3
20210516175004 51 218 2.0 5.0 0.02 0.11 0.06 91 994.4
20210516174003 51 218 1.0 4.0 0.01 0.10 0.06 91 994.4
20210516173004 51 218 3.0 5.0 0.02 0.10 0.06 91 994.2
20210516172004 51 218 3.0 6.0 0.02 0.10 0.06 90 994.2
20210516171004 51 218 2.0 5.0 0.02 0.10 0.06 90 994.2
20210516170005 51 217 2.0 5.0 0.05 0.10 0.06 90 994.2
20210516165005 51 216 1.0 4.0 0.04 0.09 0.05 90 994.3
20210516164004 51 216 3.0 5.0 0.04 0.09 0.05 89 994.2
20210516163004 51 216 4.0 7.0 0.03 0.09 0.04 89 994.2
20210516162004 51 214 5.0 8.0 0.03 0.09 0.04 88 994.2
20210516161005 52 205 5.0 9.0 0.02 0.08 0.03 84 994.3
20210516160004 53 192 6.0 10.0 0.00 0.06 0.01 79 994.3
20210516155005 54 124 5.0 11.0 0.00 0.06 0.01 77 994.3
20210516154004 55 80 6.0 10.0 0.00 0.06 0.01 78 994.1
20210516153006 56 80 5.0 10.0 0.00 0.06 0.01 78 994.1
20210516152004 56 80 6.0 8.0 0.00 0.06 0.01 76 994.0
20210516151004 56 81 6.0 9.0 0.01 0.06 0.01 74 994.1
20210516150005 57 86 5.0 10.0 0.01 0.06 0.01 73 994.1
20210516145005 57 90 6.0 10.0 0.01 0.06 0.01 73 994.2
20210516144004 57 95 6.0 11.0 0.01 0.07 0.01 73 994.3
20210516143005 57 97 4.0 11.0 0.01 0.07 0.01 75 994.4
20210516142004 56 102 5.0 13.0 0.01 0.08 0.01 76 994.5
20210516141005 57 96 5.0 9.0 0.00 0.08 0.00 73 994.5
20210516140006 58 98 5.0 8.0 0.00 0.09 0.00 70 994.5
20210516135006 59 100 4.0 11.0 0.00 0.09 0.00 68 994.6
20210516134006 58 90 4.0 9.0 0.00 0.09 0.00 73 994.6
20210516133005 57 117 3.0 7.0 0.00 0.09 0.00 73 994.8